User: anonymous   Login
Location: Newark
(53.5596°N, 1.2370°W)
Time: 12:43:29
(UTC+00:00)
Language:

MOZHAYETS 4 - Orbit

View from above orbital plane
View from above orbital plane
View from above satellite
View from above satellite

Ground track
Ground track

The orbit data is extracted from the following two-line orbital elements,

1 27939U 03042A   19340.11150463  .00000055  00000-0  18505-4 0  9990
2 27939  98.0638 112.8603 0011862 245.4707 114.5247 14.66821727865528
Epoch (UTC): 06 December 2019 02:40:34
Eccentricity: 0.0011862
inclination: 98.0638°
perigee height: 663 km
apogee height: 679 km
right ascension of ascending node: 112.8603°
argument of perigee: 245.4707°
revolutions per day: 14.66821727
mean anomaly at epoch: 114.5247°
orbit number at epoch: 86552

The dashed part of the orbit path shows where the satellite is in the earth's shadow,  

DLR